User: anonymous   Login
Location: Blandford
(50.8667°N, 2.1667°W)
Time: 10:19:06
(UTC+00:00)
Language:

Cosmos 1340 Rocket - Orbit

View from above orbital plane
View from above orbital plane
View from above satellite
View from above satellite

Ground track
Ground track

The orbit data is extracted from the following two-line orbital elements,

1 13068U 82013B   21209.83043322  .00000264  00000-0  15651-4 0  9995
2 13068  81.2059 306.0301 0021463  35.3206 324.9435 15.07689436149590
Epoch (UTC): 28 July 2021 19:55:49
Eccentricity: 0.0021463
inclination: 81.2059°
perigee height: 528 km
apogee height: 558 km
right ascension of ascending node: 306.0301°
argument of perigee: 35.3206°
revolutions per day: 15.07689436
mean anomaly at epoch: 324.9435°
orbit number at epoch: 14959

The dashed part of the orbit path shows where the satellite is in the earth's shadow,  

DLR